Rotterdam, Netherlands

5:57 PM CEST on June 27, 2017 (GMT +0200)
Rotterdam

Weather History for EHRD - November, 2012

Change the Weather History Date:

Monday, November 26, 2012

  Actual Average Record
Temperature  
Mean Temperature 47 °F -  
Max Temperature 51 °F 43 °F 55 °F (2006)
Min Temperature 43 °F 35 °F 27 °F (2016)
Degree Days  
Heating Degree Days 18    
Moisture  
Dew Point 44 °F    
Average Humidity 87    
Maximum Humidity 94    
Minimum Humidity 73    
Precipitation  
Precipitation 0.02 in - - ()
Sea Level Pressure  
Sea Level Pressure 29.60 in    
Wind  
Wind Speed 11 mph ()    
Max Wind Speed 15 mph    
Max Gust Speed 23 mph    
Visibility 7.2 miles    
Events Rain    
Averages and records for this station are not official NWS values.
T = Trace of Precipitation, MM = Missing Value Source: Averaged Metar Reports

Daily Weather History Graph

Daily Weather History Graph

Search for Another Location

Airport or City:

Trip Planner

Search our weather history database for the weather conditions in past years. The results will help you decide how hot, cold, wet, or windy it might be!

Date:

Astronomy

Nov. 26, 2012 Rise Set
Actual Time 8:20 AM CET 4:38 PM CET
Civil Twilight 7:41 AM CET 5:17 PM CET
Nautical Twilight 6:59 AM CET 5:59 PM CET
Astronomical Twilight 6:18 AM CET 6:39 PM CET
Moon 3:28 PM CET (11/26) 6:06 AM CET (11/26)
Length of Visible Light 9h 35m
Length of Day
8h 17m
Waxing Gibbous, 96% of the Moon is Illuminated
Nov 26
Waxing Gibbous
Nov 28
Full
Dec 6
Last Quarter
Dec 13
New
Dec 20
First Quarter

Hourly Weather History & Observations

Time (CET) Temp. Windchill Dew Point Humidity Pressure Visibility Wind Dir Wind Speed Gust Speed Precip Events Conditions
12:25 AM 46.4 °F 40.1 °F 42.8 °F 87% 29.77 in 6.2 mi SSW 15.0 mph - N/A   Unknown
12:55 AM 46.4 °F 40.7 °F 42.8 °F 87% 29.77 in 6.2 mi South 12.7 mph - N/A   Unknown
1:00 AM 46 °F - 43 °F 84% 29.77 in 14 mi South 13.4 mph - -   Partly Cloudy
1:25 AM 46.4 °F 40.7 °F 42.8 °F 87% 29.77 in 6.2 mi South 12.7 mph - N/A   Unknown
1:55 AM 46.4 °F 40.7 °F 42.8 °F 87% 29.77 in 6.2 mi South 12.7 mph - N/A   Unknown
2:25 AM 46.4 °F 40.4 °F 42.8 °F 87% 29.74 in 6.2 mi South 13.8 mph - N/A   Unknown
2:55 AM 44.6 °F 38.1 °F 42.8 °F 93% 29.74 in 6.2 mi South 13.8 mph - N/A   Unknown
3:25 AM 46.4 °F 40.7 °F 42.8 °F 87% 29.74 in 6.2 mi South 12.7 mph - N/A   Unknown
3:55 AM 44.6 °F 38.4 °F 42.8 °F 93% 29.71 in 6.2 mi South 12.7 mph - N/A   Unknown
4:00 AM 46 °F - 42 °F 82% 29.73 in 14 mi South 11.2 mph - -   Overcast
4:25 AM 44.6 °F 38.8 °F 42.8 °F 93% 29.71 in 6.2 mi South 11.5 mph - N/A   Unknown
4:55 AM 44.6 °F 39.7 °F 42.8 °F 93% 29.71 in 6.2 mi SSE 9.2 mph - N/A   Unknown
5:25 AM 44.6 °F 39.2 °F 41.0 °F 87% 29.68 in 6.2 mi SSE 10.4 mph - N/A   Unknown
5:55 AM 44.6 °F 39.2 °F 41.0 °F 87% 29.68 in 6.2 mi SSE 10.4 mph - N/A   Partly Cloudy
6:25 AM 44.6 °F 38.8 °F 41.0 °F 87% 29.68 in 6.2 mi SSE 11.5 mph - N/A   Unknown
6:55 AM 44.6 °F 39.2 °F 41.0 °F 87% 29.68 in 6.2 mi SSE 10.4 mph - N/A   Unknown
7:00 AM 44 °F - 42 °F 89% 29.68 in 14 mi SSE 11.2 mph - -   Partly Cloudy
7:25 AM 44.6 °F 38.4 °F 41.0 °F 87% 29.65 in 6.2 mi SSE 12.7 mph - N/A   Unknown
7:55 AM 44.6 °F 38.8 °F 41.0 °F 87% 29.65 in 6.2 mi SSE 11.5 mph - N/A   Unknown
8:25 AM 44.6 °F 38.4 °F 41.0 °F 87% 29.65 in 6.2 mi SSE 12.7 mph - N/A   Partly Cloudy
8:55 AM 46.4 °F 40.4 °F 41.0 °F 81% 29.65 in 6.2 mi SSE 13.8 mph - N/A   Scattered Clouds
9:25 AM 46.4 °F 40.7 °F 41.0 °F 81% 29.62 in 6.2 mi SSE 12.7 mph - N/A   Unknown
9:55 AM 46.4 °F 40.7 °F 41.0 °F 81% 29.62 in 6.2 mi SSE 12.7 mph - N/A   Unknown
10:00 AM 47 °F - 41 °F 73% 29.63 in 17 mi SSE 13.4 mph - - Rain Drizzle
10:25 AM 46.4 °F 40.1 °F 41.0 °F 81% 29.62 in 6.2 mi SSE 15.0 mph - N/A   Unknown
10:55 AM 46.4 °F 40.7 °F 42.8 °F 87% 29.59 in 6.2 mi SSE 12.7 mph - N/A Rain Light Rain
11:25 AM 48.2 °F - 42.8 °F 82% 29.59 in 6.2 mi South 13.8 mph - N/A   Overcast
11:55 AM 48.2 °F - 44.6 °F 87% 29.59 in 6.2 mi SSE 12.7 mph - N/A Rain Light Rain
12:25 PM 48.2 °F - 46.4 °F 93% 29.56 in 6.2 mi South 10.4 mph - N/A   Partly Cloudy
12:55 PM 50.0 °F - 46.4 °F 87% 29.56 in 6.2 mi South 11.5 mph - N/A   Unknown
1:00 PM 50 °F - 46 °F 82% 29.57 in 16 mi South 11.2 mph - -   Partly Cloudy
1:25 PM 50.0 °F - 46.4 °F 87% 29.56 in 6.2 mi South 11.5 mph - N/A   Partly Cloudy
1:55 PM 50.0 °F - 46.4 °F 87% 29.53 in 6.2 mi South 9.2 mph - N/A   Scattered Clouds
2:25 PM 51.8 °F - 48.2 °F 88% 29.53 in 6.2 mi SSE 9.2 mph - N/A   Mostly Cloudy
2:55 PM 51.8 °F - 46.4 °F 82% 29.53 in 6.2 mi SSE 10.4 mph - N/A   Partly Cloudy
3:25 PM 51.8 °F - 46.4 °F 82% 29.50 in 6.2 mi SSE 9.2 mph - N/A   Mostly Cloudy
3:55 PM 51.8 °F - 46.4 °F 82% 29.50 in 6.2 mi SSE 8.1 mph - N/A   Mostly Cloudy
4:00 PM 51 °F - 47 °F 82% 29.53 in 15 mi SSE 6.7 mph - -   Overcast
4:25 PM 51.8 °F - 48.2 °F 88% 29.50 in 6.2 mi SSE 6.9 mph - N/A   Mostly Cloudy
4:55 PM 50.0 °F - 48.2 °F 94% 29.50 in 6.2 mi SSE 9.2 mph 23.0 mph N/A   Mostly Cloudy
5:25 PM 50.0 °F - 48.2 °F 94% 29.50 in 6.2 mi South 6.9 mph - N/A   Light Drizzle
5:55 PM 50.0 °F - 48.2 °F 94% 29.50 in 6.2 mi South 6.9 mph - N/A   Mostly Cloudy
6:25 PM 50.0 °F - 46.4 °F 87% 29.50 in 6.2 mi South 9.2 mph - N/A   Partly Cloudy
6:55 PM 48.2 °F - 46.4 °F 93% 29.50 in 6.2 mi SSW 5.8 mph - N/A   Mostly Cloudy
7:00 PM 49 °F - 46 °F 83% 29.53 in 22 mi SSW 6.7 mph - -   Partly Cloudy
7:25 PM 48.2 °F - 46.4 °F 93% 29.50 in 6.2 mi South 4.6 mph - N/A   Mostly Cloudy
7:55 PM 48.2 °F - 44.6 °F 87% 29.50 in 6.2 mi SW 4.6 mph - N/A   Mostly Cloudy
8:25 PM 48.2 °F - 46.4 °F 93% 29.53 in 6.2 mi SSW 9.2 mph - N/A   Drizzle
8:55 PM 48.2 °F - 44.6 °F 87% 29.53 in 6.2 mi South 5.8 mph - N/A   Mostly Cloudy
9:25 PM 46.4 °F 41.9 °F 44.6 °F 93% 29.53 in 6.2 mi SSW 9.2 mph - N/A   Partly Cloudy
9:55 PM 46.4 °F 41.9 °F 42.8 °F 87% 29.53 in 6.2 mi South 9.2 mph - N/A   Unknown
10:00 PM 47 °F - 43 °F 81% 29.55 in 25 mi South 8.9 mph - -   Overcast
10:25 PM 46.4 °F 41.9 °F 42.8 °F 87% 29.53 in 6.2 mi South 9.2 mph - N/A   Unknown
10:55 PM 46.4 °F 42.4 °F 41.0 °F 81% 29.53 in 6.2 mi South 8.1 mph - N/A   Scattered Clouds
11:25 PM 46.4 °F 42.4 °F 41.0 °F 81% 29.53 in 6.2 mi South 8.1 mph - N/A   Overcast
11:55 PM 46.4 °F 42.4 °F 41.0 °F 81% 29.53 in 6.2 mi South 8.1 mph - N/A   Overcast